Home   Weather   Harstad   Past weeks

Flag for Norway Past Weather in Harstad, Norway — Yesterday and Last 2 Weeks

Now
30 °F

Snow flurries. Partly cloudy.


Feels Like: 21 °F
Forecast: 30 / 34 °F
Wind: 10 mph from North

Location: Evenes

Current Time: Dec 9, 2016 at 3:17:39 am

Latest Report: Dec 9, 2016 at 1:50 am


Visibility: N/A

Pressure: 29.47 "Hg

Humidity: 69%

Dew Point: 21 °F

Location of HarstadLocation

Past Weather in Harstad — Graph

°F

Harstad Temperature Yesterday

Maximum temperature yesterday: 37 °F (at 11:50 am)
Minimum temperature yesterday: 32 °F (at 2:50 am)
Average temperature yesterday: 34 °F

High & Low Weather Summary for the Past Weeks

 TemperatureHumidityPressure
High41 °F (Nov 29, 6:50 pm)100% (Nov 24, 1:20 am)30.12 "Hg (Nov 24, 1:20 am)
Low19 °F (Dec 6, 6:50 am)55% (Dec 3, 11:20 pm)29.06 "Hg (Nov 29, 10:50 pm)
Average32 °F91%29.63 "Hg
* Reported Nov 24 1:20 am — Dec 9 1:50 am, Harstad, Weather by CustomWeather, © 2016

Note: Actual official high and low records may vary slightly from our data, if they occured in-between our weather recording intervals... More about our weather records

Advertising

Harstad Weather History for the Previous 24 Hours

Scroll right to see more
 ConditionsComfort  
Time TempWeatherWind HumidityBarometerVisibility
1:50 am
Fri, Dec 9
30 °FSnow flurries. Partly cloudy.10 mph69%29.47 "HgN/A
12:50 am30 °FSnow flurries. Ice fog.15 mph86%29.47 "Hg1 mi
11:50 pm
Thu, Dec 8
32 °FPartly cloudy.12 mph75%29.45 "HgN/A
10:50 pm32 °FPartly cloudy.14 mph80%29.45 "HgN/A
9:50 pm34 °FScattered showers. Overcast.15 mph75%29.42 "HgN/A
9:20 pm34 °FLight snow. Fog.12 mph87%29.42 "HgN/A
8:50 pm34 °FSnow flurries. Partly cloudy.10 mph87%29.39 "HgN/A
7:50 pm36 °FSnow flurries. Partly cloudy.9 mph75%29.39 "HgN/A
6:50 pm36 °FBroken clouds.6 mph81%29.39 "HgN/A
5:50 pm34 °FPartly sunny.8 mph87%29.36 "HgN/A
4:50 pm36 °FSprinkles. Partly sunny.12 mph81%29.36 "HgN/A
3:50 pm36 °FPartly sunny.10 mph81%29.36 "HgN/A
2:50 pm34 °FBroken clouds.6 mph87%29.33 "HgN/A
1:50 pm34 °FPartly sunny.7 mph87%29.33 "HgN/A
12:50 pm36 °FBroken clouds.1 mph87%29.33 "HgN/A
11:50 am37 °FPartly sunny.5 mph87%29.30 "HgN/A
10:50 am34 °FBroken clouds.3 mph100%29.30 "HgN/A
9:50 am32 °FPartly sunny.2 mph100%29.30 "HgN/A
8:50 am32 °FBroken clouds.2 mph100%29.30 "HgN/A
7:50 am32 °FPartly sunny.No wind100%29.30 "HgN/A
6:50 am34 °FBroken clouds.2 mph100%29.33 "HgN/A
5:50 am32 °FPartly cloudy.No wind100%29.33 "Hg5 mi
5:20 am32 °FOvercast.2 mph100%29.33 "HgN/A
4:50 am32 °FLow clouds.2 mph100%29.33 "HgN/A
4:20 am32 °FMostly cloudy.2 mph100%29.36 "HgN/A
3:50 am34 °FMostly cloudy.No wind100%29.36 "HgN/A
3:20 am32 °FIce fog.2 mph100%29.36 "Hg6 mi
Weather by CustomWeather, © 2016

See weather overviewHow to use our weather pages